Weather in Plekhanovo

Russia / Perm Krai     57°28′46″N   56°58′32″E
temp.,
°C
wind,
m/s
gust,
m/s
humid.,
%
clouds,
%
prec.,
mm/h
press.,
hPa
HPBL,
m
28 february, sun
sun2823:00−17e61192100 0.8 1009518
02:00−16e61094100 0.3 1008463
05:00−16e61193100 0.7 1008474
08:00−16ene61190100 0.1 1008494
11:00−15ene71093100 0.4 1008577
14:00−13ene6991100 0.3 1008606
17:00−12ene6992100 0.6 1009617
20:00−14ene61094100 0.3 1011446
1 march, mon
mon123:00−16ene5994100 0.5 1013399
02:00−16ene489599 0.2 1014348
05:00−17ne369799 0.4 1016170
08:00−19ne369790 0.1 1017132
11:00−17ene349284 0.2 1018288
14:00−14ene228593 0.0 1017384
17:00−13nnw118996 0.0 1017190
20:00−19sw129418 0.0 101720
2 march, tue
tue223:00−20sw23979 0.0 101620
02:00−20ssw3310052 0.0 101528
05:00−20ssw489963 0.0 1013138
08:00−19ssw6129597 0.0 1010334
11:00−17s7119298 0.0 1008411
14:00−13s71194100 0.4 1006504
17:00−12ssw71194100 1.2 1004580
20:00−13ssw61194100 1.0 1003607
3 march, wed
wed323:00−12s51095100 1.7 1002542
02:00−12s5994100 0.6 1001431
05:00−13sse3895100 0.9 1000286
08:00−12sse2596100 0.5 999237
11:00−10sse2291100 0.9 998278
14:00−8sw0188100 0.2 997319
17:00−7nw1290100 0.3 998314
20:00−10wnw1197100 0.1 99821
4 march, thu
thu423:00−9wnw239699 0.4 100049
02:00−12nw479593 0.1 1001139
05:00−13wnw459790 0.1 100283
08:00−15wnw359763 0.0 100378
11:00−10w479272 0.0 1004386
14:00−7w578599 0.0 1004785
17:00−8wsw588699 0.1 1003693
20:00−9ssw5129299 0.0 1002482